This is the latest recevied weather packets stored in our database for station/object K1ZK-13. If no packets are shown the sender has not sent any weather packets the latest 1 day(s).
| Time | Temp. | Humidity | Pressure | Rain* | Wind** | Luminosity | Snow |
|---|---|---|---|---|---|---|---|
| 1777971662 | 15° C | 60% | 1004.9 hPa | 0 mm | 1.79 m/s, 125° | 0 W/m² | - |
| 1777971359 | 15° C | 59% | 1005.1 hPa | 0 mm | 1.79 m/s, 139° | 0 W/m² | - |
| 1777971057 | 15° C | 59% | 1004.9 hPa | 0 mm | 2.24 m/s, 148° | 0 W/m² | - |
| 1777970755 | 15° C | 59% | 1005.4 hPa | 0 mm | 0.89 m/s, 147° | 0 W/m² | - |
| 1777970453 | 15° C | 58% | 1005.3 hPa | 0 mm | 2.68 m/s, 153° | 0 W/m² | - |
| 1777970149 | 15° C | 58% | 1005.4 hPa | 0 mm | 1.34 m/s, 135° | 0 W/m² | - |
| 1777969846 | 15° C | 57% | 1005.4 hPa | 0 mm | 3.13 m/s, 166° | 0 W/m² | - |
| 1777969542 | 15.56° C | 57% | 1005.6 hPa | 0 mm | 2.68 m/s, 139° | 0 W/m² | - |
| 1777969239 | 15.56° C | 57% | 1005.5 hPa | 0 mm | 1.79 m/s, 179° | 0 W/m² | - |
| 1777968935 | 15.56° C | 57% | 1005.4 hPa | 0 mm | 0.89 m/s, 138° | 0 W/m² | - |
| 1777968632 | 15.56° C | 56% | 1005.5 hPa | 0 mm | 1.79 m/s, 136° | 0 W/m² | - |
| 1777968329 | 15.56° C | 56% | 1005.3 hPa | 0 mm | 1.79 m/s, 148° | 0 W/m² | - |
| 1777968026 | 15.56° C | 56% | 1005.2 hPa | 0 mm | 0.89 m/s, 141° | 0 W/m² | - |
| 1777967721 | 15.56° C | 56% | 1005.4 hPa | 0 mm | 1.79 m/s, 143° | 0 W/m² | - |
| 1777967419 | 15.56° C | 55% | 1005.3 hPa | 0 mm | 1.79 m/s, 129° | 0 W/m² | - |
| 1777967116 | 15.56° C | 56% | 1005.2 hPa | 0 mm | 1.79 m/s, 141° | 0 W/m² | - |
| 1777966813 | 15.56° C | 55% | 1005.3 hPa | 0 mm | 2.68 m/s, 116° | 0 W/m² | - |
| 1777966510 | 15.56° C | 56% | 1005.2 hPa | 0 mm | 2.68 m/s, 130° | 0 W/m² | - |
| 1777966208 | 15° C | 56% | 1005.3 hPa | 0 mm | 2.24 m/s, 149° | 0 W/m² | - |
| 1777965904 | 15° C | 56% | 1005.4 hPa | 0 mm | 0.89 m/s, 148° | 0 W/m² | - |
| 1777965599 | 15° C | 56% | 1005.3 hPa | 0 mm | 2.68 m/s, 217° | 0 W/m² | - |
| 1777965295 | 15° C | 56% | 1005.3 hPa | 0 mm | 2.24 m/s, 143° | 0 W/m² | - |
* Rain latest hour (hover to see other rain measurements)
** Current wind speed in m/s (hover to see current wind gust speed)